Location: *
(43.9900°N, 3.4811°E)
Time: 23:44:48
(UTC+00:00)

Shenzhou-11 Module - Pass Details

Date: 25 August 2019
Orbit: 313 x 326 km, 42.8° (Epoch: 22 October)

Event Time Altitude Azimuth Distance (km) Brightness Sun altitude
Rises 19:38:20 0° 268° (W) 2,092 7.0 -11.5°
Reaches altitude 10° 19:40:21 10° 266° (W) 1,252 5.6 -11.8°
Maximum altitude 19:43:08 69° 182° (S) 352 1.7 -12.2°
Enters shadow 19:44:32 25° 104° (ESE) 699 2.8 -12.4°
